This is the latest recevied weather packets stored in our database for station/object N2PPN. If no packets are shown the sender has not sent any weather packets the latest 10 day(s).
| Time | Temp. | Humidity | Pressure | Rain* | Wind** | Luminosity | Snow |
|---|---|---|---|---|---|---|---|
| 1777413262 | 13.89° C | 62% | 1021.9 hPa | 0 mm | - | 67 W/m² | - |
| 1777412958 | 13.89° C | 57% | 1021.9 hPa | 0 mm | - | 74 W/m² | - |
| 1777412656 | 14.44° C | 53% | 1022.1 hPa | 0 mm | - | 74 W/m² | - |
| 1777412354 | 14.44° C | 52% | 1022 hPa | 0 mm | - | 74 W/m² | - |
| 1777412048 | 14.44° C | 52% | 1021.9 hPa | 0 mm | - | 78 W/m² | - |
| 1777411743 | 14.44° C | 50% | 1022.1 hPa | 0 mm | - | 92 W/m² | - |
| 1777411438 | 14.44° C | 51% | 1022.1 hPa | 0 mm | - | 97 W/m² | - |
| 1777411133 | 14.44° C | 50% | 1021.9 hPa | 0 mm | - | 102 W/m² | - |
| 1777410832 | 14.44° C | 49% | 1022.2 hPa | 0 mm | - | 105 W/m² | - |
| 1777410526 | 14.44° C | 49% | 1022.1 hPa | 0 mm | - | 106 W/m² | - |
| 1777410225 | 14.44° C | 50% | 1022.1 hPa | 0 mm | - | 99 W/m² | - |
| 1777409921 | 14.44° C | 51% | 1022.4 hPa | 0 mm | - | 84 W/m² | - |
| 1777409616 | 14.44° C | 51% | 1022.2 hPa | 0 mm | - | 71 W/m² | - |
| 1777409312 | 14.44° C | 52% | 1022.2 hPa | 0 mm | - | 65 W/m² | - |
| 1777409008 | 14.44° C | 49% | 1022.4 hPa | 0 mm | - | 60 W/m² | - |
| 1777408705 | 14.44° C | 51% | 1022.3 hPa | 0 mm | - | 60 W/m² | - |
| 1777408401 | 14.44° C | 50% | 1022.4 hPa | 0 mm | - | 65 W/m² | - |
| 1777408095 | 15° C | 50% | 1022.6 hPa | 0 mm | - | 68 W/m² | - |
| 1777407791 | 15° C | 49% | 1022.5 hPa | 0 mm | - | 81 W/m² | - |
| 1777407487 | 15.56° C | 50% | 1022.4 hPa | 0 mm | - | 93 W/m² | - |
| 1777407182 | 15.56° C | 50% | 1022.8 hPa | 0 mm | - | 95 W/m² | - |
| 1777406877 | 15.56° C | 48% | 1022.6 hPa | 0 mm | - | 101 W/m² | - |
| 1777406572 | 15.56° C | 48% | 1022.6 hPa | 0 mm | - | 108 W/m² | - |
| 1777406269 | 16.11° C | 47% | 1022.6 hPa | 0 mm | - | 105 W/m² | - |
| 1777405967 | 16.11° C | 47% | 1022.7 hPa | 0 mm | - | 105 W/m² | - |
* Rain latest hour (hover to see other rain measurements)
** Current wind speed in m/s (hover to see current wind gust speed)